Location: Unspecified
(31.5112°N, 0.0000°E)
Time: 01:10:12
(UTC+00:00)

IRS-1A - Visible Passes

Search period start: 04 April 2026 00:00
Search period end: 14 April 2026 00:00
Orbit: 893 x 915 km, 98.9° (Epoch: 29 March)

Date Brightness Start Highest point End Pass type
(mag) Time Alt. Az. Time Alt. Az. Time Alt. Az.
4 Apr 5.1 20:47:06 58° N 20:47:06 58° N 20:51:42 10° N visible
5 Apr 5.1 20:50:42 61° N 20:50:42 61° N 20:55:22 10° N visible
6 Apr 5.1 20:54:20 62° N 20:54:20 62° N 20:59:03 10° NNW visible
7 Apr 6.7 19:14:59 10° ENE 19:16:01 10° ENE 19:17:05 10° NE visible
7 Apr 5.1 20:57:57 63° NNW 20:57:57 63° NNW 21:02:43 10° NNW visible
8 Apr 6.6 19:18:28 11° ENE 19:19:39 12° ENE 19:21:28 10° NE visible
8 Apr 5.1 21:01:35 63° NW 21:01:35 63° NW 21:06:23 10° NNW visible
9 Apr 6.6 19:22:06 12° ENE 19:23:15 13° ENE 19:25:37 10° NE visible
9 Apr 5.2 21:05:12 61° NW 21:05:12 61° NW 21:10:02 10° NNW visible
10 Apr 6.5 19:25:43 13° ENE 19:26:52 14° ENE 19:29:38 10° NE visible
10 Apr 5.2 21:08:49 59° WNW 21:08:49 59° WNW 21:13:41 10° NNW visible
11 Apr 6.4 19:29:21 14° ENE 19:30:29 15° ENE 19:33:36 10° NNE visible
11 Apr 5.3 21:12:27 56° WNW 21:12:27 56° WNW 21:17:19 10° NNW visible
12 Apr 6.3 19:32:58 16° E 19:34:06 16° ENE 19:37:31 10° NNE visible
12 Apr 5.4 21:16:05 52° WNW 21:16:05 52° WNW 21:20:57 10° NNW visible
13 Apr 6.3 19:36:35 17° E 19:37:44 18° ENE 19:41:25 10° NNE visible
13 Apr 5.5 21:19:42 49° WNW 21:19:42 49° WNW 21:24:35 10° NNW visible
